TimeCDT,TemperatureF,Dew PointF,Humidity,Sea Level PressureIn,VisibilityMPH,Wind Direction,Wind SpeedMPH,Gust SpeedMPH,PrecipitationIn,Events,Conditions,WindDirDegrees,DateUTC
12:53 AM,84.9,64.0,49,29.89,10.0,South,12.7,-,N/A,,Scattered Clouds,170,2013-09-19 05:53:00
1:53 AM,84.0,64.9,53,29.89,10.0,South,11.5,-,N/A,,Mostly Cloudy,170,2013-09-19 06:53:00
2:53 AM,82.9,66.0,56,29.89,10.0,South,10.4,-,N/A,,Mostly Cloudy,170,2013-09-19 07:53:00
3:53 AM,82.9,66.0,56,29.88,10.0,South,12.7,-,N/A,,Mostly Cloudy,180,2013-09-19 08:53:00
4:53 AM,82.0,64.9,56,29.88,10.0,South,11.5,-,N/A,,Mostly Cloudy,180,2013-09-19 09:53:00
5:53 AM,81.0,66.9,62,29.90,10.0,South,9.2,-,N/A,,Mostly Cloudy,170,2013-09-19 10:53:00
6:53 AM,79.0,66.9,66,29.91,10.0,SSE,8.1,-,N/A,,Mostly Cloudy,160,2013-09-19 11:53:00
7:53 AM,80.1,66.9,64,29.93,10.0,SSE,9.2,-,N/A,,Mostly Cloudy,160,2013-09-19 12:53:00
8:53 AM,81.0,69.1,67,29.95,10.0,South,9.2,-,N/A,,Mostly Cloudy,180,2013-09-19 13:53:00
9:53 AM,82.0,70.0,67,29.96,10.0,South,8.1,-,N/A,,Mostly Cloudy,180,2013-09-19 14:53:00
10:53 AM,84.0,70.0,63,29.97,10.0,South,11.5,17.3,N/A,,Mostly Cloudy,190,2013-09-19 15:53:00
11:53 AM,84.9,68.0,57,29.97,10.0,SSW,11.5,-,N/A,,Mostly Cloudy,200,2013-09-19 16:53:00
12:53 PM,86.0,68.0,55,29.95,10.0,SSW,10.4,-,N/A,,Overcast,200,2013-09-19 17:53:00
1:53 PM,87.1,66.9,51,29.93,10.0,South,9.2,-,N/A,,Overcast,190,2013-09-19 18:53:00
2:53 PM,87.1,66.9,51,29.90,10.0,Variable,3.5,-,N/A,,Overcast,0,2013-09-19 19:53:00
3:53 PM,88.0,66.0,48,29.87,10.0,SSW,4.6,-,N/A,,Overcast,200,2013-09-19 20:53:00
4:53 PM,89.1,66.0,46,29.85,10.0,SSW,3.5,-,N/A,,Overcast,210,2013-09-19 21:53:00
5:53 PM,89.1,66.0,46,29.85,10.0,Calm,Calm,-,N/A,,Overcast,0,2013-09-19 22:53:00
6:53 PM,87.1,66.9,51,29.85,10.0,NNE,8.1,-,N/A,,Overcast,30,2013-09-19 23:53:00
7:53 PM,84.9,66.9,55,29.88,10.0,Variable,5.8,-,N/A,,Overcast,0,2013-09-20 00:53:00
8:23 PM,72.0,69.1,91,29.92,2.5,East,17.3,23.0,0.09,Rain,Heavy Rain,100,2013-09-20 01:23:00
8:40 PM,72.0,69.1,91,29.91,5.0,ENE,10.4,-,0.32,Rain,Light Rain,70,2013-09-20 01:40:00
8:53 PM,73.0,69.1,87,29.89,10.0,NE,5.8,-,0.32,Rain,Light Rain,50,2013-09-20 01:53:00
9:07 PM,73.9,70.0,87,29.93,10.0,Variable,3.5,-,0.00,Rain-Thunderstorm,Light Thunderstorms and Rain,0,2013-09-20 02:07:00
9:17 PM,73.9,70.0,87,29.97,5.0,South,21.9,28.8,0.02,Rain-Thunderstorm,Thunderstorms and Rain,190,2013-09-20 02:17:00
9:22 PM,72.0,70.0,93,29.97,1.0,SSW,20.7,28.8,0.19,Rain-Thunderstorm,Heavy Thunderstorms and Rain,210,2013-09-20 02:22:00
9:26 PM,72.0,70.0,93,29.96,0.8,WSW,16.1,28.8,0.42,Rain-Thunderstorm,Heavy Thunderstorms and Rain,250,2013-09-20 02:26:00
9:35 PM,73.0,71.1,93,29.96,1.5,Calm,Calm,-,0.66,Rain-Thunderstorm,Heavy Thunderstorms and Rain,0,2013-09-20 02:35:00
9:53 PM,73.0,70.0,90,29.93,9.0,North,8.1,-,0.71,Rain-Thunderstorm,Thunderstorms and Rain,360,2013-09-20 02:53:00
10:01 PM,73.0,70.0,90,29.95,10.0,North,8.1,-,0.01,Rain-Thunderstorm,Light Thunderstorms and Rain,10,2013-09-20 03:01:00
10:18 PM,73.0,70.0,90,29.94,10.0,North,9.2,-,0.02,Rain,Light Rain,10,2013-09-20 03:18:00
10:53 PM,72.0,69.1,91,29.92,10.0,North,8.1,-,0.02,Rain,Light Rain,350,2013-09-20 03:53:00
11:53 PM,72.0,70.0,93,29.91,10.0,NE,8.1,-,0.01,Rain,Light Rain,50,2013-09-20 04:53:00